WA4TPR Weather Reports


Display with metric or nautical units.
time (UTC)temp
F
wind
direction
speed
MPH
gust
MPH
rain 1hr
in
rain 24hr
in
rain mn
in
humidity
%
barometer
mb
20260505024605 71 120 3.0 5.0 0.00 0.00 0.00 88 1019.6
20260505024103 71 99 2.0 6.0 0.00 0.00 0.00 88 1019.7
20260505023559 71 92 3.0 5.0 0.00 0.00 0.00 87 1020.0
20260505023057 71 97 2.0 6.0 0.00 0.00 0.00 87 1019.6
20260505022554 72 157 1.0 3.0 0.00 0.00 0.00 87 1019.6
20260505022051 72 97 3.0 6.0 0.00 0.00 0.00 87 1019.5
20260505021548 72 91 4.0 7.0 0.00 0.00 0.00 87 1019.7
20260505021045 72 103 4.0 6.0 0.00 0.00 0.00 87 1019.3
20260505020544 72 99 2.0 7.0 0.00 0.00 0.00 86 1019.4
20260505020042 72 104 7.0 9.0 0.00 0.00 0.00 86 1019.5
20260505015539 72 109 4.0 6.0 0.00 0.00 0.00 86 1019.5
20260505015035 72 126 3.0 8.0 0.00 0.00 0.00 86 1019.3
20260505014532 73 129 5.0 7.0 0.00 0.00 0.00 86 1019.2
20260505014030 73 89 3.0 8.0 0.00 0.00 0.00 85 1019.2
20260505013527 73 106 4.0 9.0 0.00 0.00 0.00 85 1019.4
20260505013024 73 104 5.0 8.0 0.00 0.00 0.00 85 1019.2
20260505012522 73 39 5.0 9.0 0.00 0.00 0.00 85 1019.5
20260505012019 73 58 4.0 6.0 0.00 0.00 0.00 85 1019.3
20260505011514 73 77 6.0 9.0 0.00 0.00 0.00 85 1019.0
20260505011011 73 106 2.0 6.0 0.00 0.00 0.00 85 1019.3
20260505010507 73 159 5.0 10.0 0.00 0.00 0.00 84 1019.5
20260505010004 73 94 4.0 9.0 0.00 0.00 0.00 84 1019.4
20260505005500 73 73 3.0 7.0 0.00 0.00 0.00 85 1019.2
20260505004958 73 95 5.0 7.0 0.00 0.00 0.00 84 1018.8
20260505004454 73 104 6.0 9.0 0.00 0.00 0.00 84 1018.8
20260505003951 73 70 6.0 9.0 0.00 0.00 0.00 84 1018.7
20260505003448 74 75 5.0 9.0 0.00 0.00 0.00 83 1018.6
20260505002944 74 92 4.0 8.0 0.00 0.00 0.00 82 1018.4
20260505002441 74 97 4.0 9.0 0.00 0.00 0.00 82 1018.5
20260505001939 74 136 2.0 11.0 0.00 0.00 0.00 82 1018.7
20260505001437 74 157 7.0 9.0 0.00 0.00 0.00 81 1018.7
20260505000933 74 133 3.0 14.0 0.00 0.00 0.00 81 1018.7
20260505000432 75 178 4.0 8.0 0.00 0.00 0.00 80 1018.6
20260504235928 75 84 2.0 7.0 0.00 0.00 0.00 80 1018.5
20260504235425 75 206 7.0 14.0 0.00 0.00 0.00 80 1018.3
20260504234921 75 101 9.0 14.0 0.00 0.00 0.00 80 1018.3
20260504234419 75 158 8.0 9.0 0.00 0.00 0.00 80 1018.1
20260504233915 75 82 9.0 11.0 0.00 0.00 0.00 79 1017.9
20260504233411 75 107 7.0 14.0 0.00 0.00 0.00 79 1018.0
20260504232908 75 154 3.0 8.0 0.00 0.00 0.00 79 1017.9
20260504232405 75 137 5.0 9.0 0.00 0.00 0.00 78 1017.8
20260504231902 76 108 5.0 8.0 0.00 0.00 0.00 78 1017.9
20260504231358 76 65 2.0 11.0 0.00 0.00 0.00 78 1017.9
20260504230855 76 148 8.0 14.0 0.00 0.00 0.00 77 1018.1
20260504230352 77 141 5.0 8.0 0.00 0.00 0.00 77 1017.8
20260504225851 77 105 7.0 14.0 0.00 0.00 0.00 76 1018.0
20260504225347 77 58 6.0 14.0 0.00 0.00 0.00 75 1017.7
20260504224844 77 90 11.0 15.0 0.00 0.00 0.00 74 1017.7
20260504224341 77 70 4.0 9.0 0.00 0.00 0.00 74 1017.9
20260504223838 77 165 4.0 10.0 0.00 0.00 0.00 74 1017.8
20260504223333 78 161 7.0 9.0 0.00 0.00 0.00 73 1018.0
20260504222830 79 102 3.0 6.0 0.00 0.00 0.00 72 1017.7
20260504222327 79 146 5.0 13.0 0.00 0.00 0.00 73 1017.7
20260504221826 79 86 8.0 9.0 0.00 0.00 0.00 72 1017.8
20260504221322 79 106 3.0 11.0 0.00 0.00 0.00 73 1017.9
20260504220819 78 124 6.0 9.0 0.00 0.00 0.00 72 1017.9
20260504220316 79 203 7.0 11.0 0.00 0.00 0.00 72 1017.9
20260504215813 79 97 3.0 9.0 0.00 0.00 0.00 72 1017.8
20260504215309 79 150 4.0 9.0 0.00 0.00 0.00 72 1017.7
20260504214805 79 101 7.0 16.0 0.00 0.00 0.00 73 1017.7
20260504214303 78 82 8.0 13.0 0.00 0.00 0.00 72 1017.5
20260504213759 79 79 7.0 11.0 0.00 0.00 0.00 72 1017.7
20260504213255 79 107 6.0 14.0 0.00 0.00 0.00 71 1017.5
20260504212752 79 110 4.0 15.0 0.00 0.00 0.00 71 1017.8
20260504212249 79 103 5.0 11.0 0.00 0.00 0.00 72 1017.8
20260504211746 80 165 5.0 13.0 0.00 0.00 0.00 69 1017.7
20260504211242 80 83 5.0 8.0 0.00 0.00 0.00 70 1017.6
20260504210740 80 136 9.0 13.0 0.00 0.00 0.00 71 1017.8
20260504210237 80 57 8.0 15.0 0.00 0.00 0.00 71 1017.8
20260504205734 80 75 6.0 13.0 0.00 0.00 0.00 70 1017.9
20260504205232 80 64 8.0 13.0 0.00 0.00 0.00 71 1017.8
20260504204730 80 69 9.0 20.0 0.00 0.00 0.00 71 1017.8
20260504204228 80 93 7.0 13.0 0.00 0.00 0.00 70 1017.6
20260504203727 79 60 10.0 14.0 0.00 0.00 0.00 71 1017.9
20260504203223 79 103 4.0 10.0 0.00 0.00 0.00 72 1017.7
20260504202718 80 84 5.0 13.0 0.00 0.00 0.00 70 1017.8
20260504202215 79 66 5.0 11.0 0.00 0.00 0.00 70 1018.1
20260504201712 80 96 7.0 15.0 0.00 0.00 0.00 71 1018.1
20260504201210 81 80 5.0 9.0 0.00 0.00 0.00 67 1018.0
20260504200707 81 139 3.0 10.0 0.00 0.00 0.00 69 1018.0
20260504200203 82 55 5.0 11.0 0.00 0.00 0.00 68 1017.9
20260504195659 81 103 8.0 15.0 0.00 0.00 0.00 67 1018.1
20260504195155 80 52 11.0 13.0 0.00 0.00 0.00 69 1018.2
20260504194653 81 96 6.0 10.0 0.00 0.00 0.00 69 1018.1
20260504194148 82 87 3.0 13.0 0.00 0.00 0.00 66 1018.4
20260504193645 82 60 10.0 15.0 0.00 0.00 0.00 67 1018.3
20260504193143 82 108 9.0 10.0 0.00 0.00 0.00 68 1018.5
20260504192641 82 85 3.0 8.0 0.00 0.00 0.00 66 1018.5
20260504192139 81 49 5.0 15.0 0.00 0.00 0.00 68 1018.7
20260504191637 81 95 9.0 11.0 0.00 0.00 0.00 68 1018.8
20260504191133 80 66 11.0 14.0 0.00 0.00 0.00 70 1018.7
20260504190629 80 42 7.0 10.0 0.00 0.00 0.00 71 1018.8
20260504190126 80 55 5.0 14.0 0.00 0.00 0.00 70 1018.9
20260504185622 80 61 5.0 15.0 0.00 0.00 0.00 71 1019.1
20260504185119 81 87 4.0 13.0 0.00 0.00 0.00 71 1019.1
20260504184615 82 77 4.0 9.0 0.00 0.00 0.00 69 1019.3
20260504184110 81 161 11.0 16.0 0.00 0.00 0.00 68 1019.2
20260504183607 82 90 4.0 11.0 0.00 0.00 0.00 67 1019.3
20260504183105 81 74 6.0 10.0 0.00 0.00 0.00 68 1019.2
20260504182602 81 94 4.0 9.0 0.00 0.00 0.00 70 1019.3
20260504182059 81 96 7.0 11.0 0.00 0.00 0.00 68 1019.4
20260504181556 81 91 4.0 9.0 0.00 0.00 0.00 69 1019.5
20260504181054 80 121 7.0 10.0 0.00 0.00 0.00 69 1019.7
20260504180553 80 60 7.0 9.0 0.00 0.00 0.00 70 1019.5
20260504180052 81 59 8.0 13.0 0.00 0.00 0.00 70 1019.3
20260504175548 81 47 5.0 9.0 0.00 0.00 0.00 70 1019.5
20260504175045 82 36 7.0 13.0 0.00 0.00 0.00 70 1019.7
20260504174543 80 116 7.0 10.0 0.00 0.00 0.00 70 1019.6
20260504174040 80 90 4.0 14.0 0.00 0.00 0.00 70 1019.5
20260504173537 81 61 4.0 10.0 0.00 0.00 0.00 69 1019.7
20260504173034 81 77 7.0 13.0 0.00 0.00 0.00 68 1019.9
20260504172530 80 95 2.0 8.0 0.00 0.00 0.00 70 1019.9
20260504172027 80 68 5.0 8.0 0.00 0.00 0.00 70 1020.0
20260504171524 80 135 5.0 9.0 0.00 0.00 0.00 71 1019.9
20260504171021 79 62 5.0 13.0 0.00 0.00 0.00 70 1020.0
20260504170516 80 96 3.0 13.0 0.00 0.00 0.00 70 1019.9
20260504160437 79 54 3.0 11.0 0.00 0.00 0.00 68 1020.6
20260504150900 78 101 5.0 10.0 0.00 0.00 0.00 70 1020.6
20260504150358 77 73 3.0 11.0 0.00 0.00 0.00 70 1020.7
20260504141327 76 80 5.0 11.0 0.00 0.00 0.00 76 1020.3
20260504140824 76 55 2.0 8.0 0.00 0.00 0.00 77 1020.3
20260504140319 76 89 2.0 13.0 0.00 0.00 0.00 78 1020.3
20260504130748 72 57 4.0 8.0 0.00 0.00 0.00 83 1020.0
20260504130244 72 95 1.0 8.0 0.00 0.00 0.00 84 1020.1
20260504120208 71 56 6.0 8.0 0.00 0.00 0.00 88 1019.6
20260504110635 70 112 2.0 7.0 0.00 0.00 0.00 89 1019.3
20260504110131 70 55 2.0 3.0 0.00 0.00 0.00 89 1019.0
20260504100552 69 34 2.0 6.0 0.00 0.00 0.00 91 1018.6
20260504081945 69 23 5.0 9.0 0.00 0.00 0.00 90 1018.7
20260504081442 69 10 4.0 8.0 0.00 0.00 0.00 90 1019.0
20260504080938 69 90 3.0 3.0 0.00 0.00 0.00 90 1018.7
20260504080435 69 18 3.0 6.0 0.00 0.00 0.00 90 1018.8
20260504070403 69 72 1.0 3.0 0.00 0.00 0.00 92 1018.5
20260504050750 70 91 1.0 6.0 0.00 0.00 0.00 92 1019.8
20260504050247 70 56 1.0 5.0 0.00 0.00 0.00 92 1019.8
20260504045745 70 74 2.0 5.0 0.00 0.00 0.00 92 1019.8
20260504045239 70 113 2.0 7.0 0.00 0.00 0.00 92 1019.9
20260504044737 70 41 3.0 6.0 0.00 0.00 0.00 92 1019.8
20260504044234 70 111 1.0 7.0 0.00 0.00 0.00 92 1019.9
20260504043731 70 80 3.0 8.0 0.00 0.00 0.00 92 1019.8
20260504043228 70 86 3.0 7.0 0.00 0.00 0.00 92 1019.7
20260504042726 70 96 5.0 8.0 0.00 0.00 0.00 92 1019.6
20260504042222 70 96 3.0 5.0 0.00 0.00 0.00 93 1019.6
20260504041718 70 89 4.0 5.0 0.00 0.00 0.00 93 1020.0
20260504041214 70 65 1.0 5.0 0.00 0.00 0.00 93 1020.2
20260504040711 70 102 0.0 5.0 0.00 0.00 0.00 93 1020.2
20260504040208 70 94 3.0 5.0 0.00 0.00 0.00 93 1020.4
20260504035704 70 94 3.0 6.0 0.00 0.10 0.10 93 1020.2
20260504035202 70 104 1.0 6.0 0.00 0.10 0.10 93 1020.4
20260504034659 70 85 3.0 5.0 0.00 0.10 0.10 92 1020.5
20260504034156 70 89 3.0 5.0 0.00 0.10 0.10 92 1020.4
20260504033654 71 103 3.0 5.0 0.00 0.10 0.10 92 1020.5
20260504033151 71 80 3.0 6.0 0.00 0.10 0.10 91 1020.6
20260504032647 71 84 1.0 5.0 0.00 0.10 0.10 91 1020.6
20260504032145 71 36 4.0 6.0 0.00 0.10 0.10 91 1020.6
20260504031642 70 97 2.0 8.0 0.00 0.10 0.10 91 1020.5
20260504031138 70 107 0.0 1.0 0.00 0.10 0.10 91 1020.6
20260504030635 70 73 1.0 5.0 0.00 0.10 0.10 92 1020.6
20260504030132 70 97 1.0 3.0 0.00 0.10 0.10 92 1020.6
20260504025628 70 60 3.0 3.0 0.00 0.10 0.10 92 1020.5
20260504025125 70 101 2.0 3.0 0.00 0.10 0.10 93 1020.5